Wind_Speed
74 72 75 67 69 67 61 57 64 66 61 61 61 61 63 66 57 60 65 66 64 63 59 59 60 59 55 55 49 52 54 53
85 77 77 75 72 67 63 56 50 66 67 67 64 62 60 61 60 65 60 54 53 55 61 67 66 59 62 54 49 54 59 62
96 89 80 79 78 73 70 72 72 65 59 46 62 67 66 57 61 51 55 45 37 43 44 56 59 64 64 58 56 60 59 64
103 95 88 83 84 81 78 76 76 69 63 64 66 64 50 69 60 59 59 50 58 67 69 71 67 74 68 68 61 59 65 68
102 97 94 91 91 88 84 84 81 76 71 62 63 71 84 69 71 61 62 74 71 74 69 73 74 63 62 64 65 60 65 67
106 103 98 93 93 94 91 88 84 80 81 84 85 77 78 76 69 70 83 83 82 81 81 72 62 55 60 67 75 79 88 79
105 102 98 94 92 91 93 91 88 83 84 90 88 93 85 85 89 90 89 91 89 81 78 70 60 62 64 74 86 99 98 87
103 102 98 95 95 93 93 94 91 90 89 91 91 92 91 89 89 88 86 86 81 80 77 75 73 68 72 81 98 99 99 90
94 98 101 95 97 94 92 92 92 93 93 94 93 94 96 94 95 94 92 91 91 89 87 84 87 91 99 104 104 102 102 92
88 85 86 96 101 97 93 92 97 95 94 94 95 94 95 99 99 99 100 99 99 96 91 90 92 101 104 104 103 102 89 82
83 81 76 75 77 83 93 90 94 92 95 96 95 99 100 99 98 99 97 97 94 96 95 99 99 102 104 104 101 88 79 80
74 73 72 70 70 73 76 85 88 87 86 89 94 96 97 98 99 100 98 96 98 99 99 97 99 100 97 95 93 89 86 83
70 68 68 66 63 65 66 66 68 80 71 80 74 80 82 88 91 92 91 92 94 97 101 99 95 92 86 87 86 84 82 83
66 70 67 66 66 62 61 62 60 61 69 70 74 74 75 78 82 86 93 94 94 92 90 89 87 82 77 79 80 80 78 80
67 65 65 65 66 63 61 61 65 66 69 75 74 76 79 81 83 85 84 83 84 84 82 81 78 75 74 74 74 77 78 79
67 69 67 66 66 65 64 66 66 67 68 69 72 73 74 76 76 75 74 74 74 74 74 73 72 73 74 75 75 76 77 78
60 62 66 66 68 67 67 67 67 66 66 65 63 64 67 68 67 67 67 67 67 67 68 69 71 72 72 72 73 75 76 79
59 59 61 64 66 67 68 68 68 68 67 67 65 64 64 64 65 65 66 67 69 69 69 70 71 71 71 71 72 76 78 81
50 62 63 61 64 66 68 69 70 70 70 69 69 69 68 68 68 69 70 70 71 70 69 69 70 72 73 73 73 76 76 77
46 49 60 64 66 72 73 72 71 72 72 73 73 72 72 72 72 74 75 74 72 70 69 69 71 72 74 76 77 73 74 72
Wind_Direction
242 242 248 248 257 264 261 263 263 264 268 268 269 273 276 272 271 276 277 277 276 272 273 274 275 273 273 276 278 281 281 281
250 242 241 245 251 256 257 263 256 266 265 268 270 270 269 268 279 279 272 279 271 272 275 274 274 274 282 278 282 286 284 284
252 251 242 246 246 247 251 254 258 263 268 270 270 267 264 269 273 260 262 274 275 279 275 281 273 268 273 274 278 281 287 292
252 249 246 241 244 245 247 249 253 255 253 250 267 265 257 274 274 258 255 269 277 284 282 282 274 273 270 270 275 280 287 290
247 248 246 247 245 246 245 247 248 253 254 255 260 252 255 263 262 257 254 271 280 279 282 285 276 269 266 262 271 277 283 287
247 248 246 244 245 247 247 247 244 247 249 248 247 256 258 258 260 258 263 268 274 277 280 277 262 259 261 267 274 279 289 289
242 244 244 243 245 245 245 248 247 245 243 248 253 256 257 258 259 263 264 267 269 274 276 268 251 253 258 276 282 287 293 292
243 242 243 244 244 245 245 246 247 244 245 247 248 254 258 258 261 263 266 267 267 266 269 268 254 255 264 271 284 290 290 289
243 244 243 244 246 247 247 248 247 247 247 249 249 252 256 258 258 260 262 267 269 268 267 263 261 262 269 276 280 283 288 285
241 243 244 245 245 246 247 247 248 248 249 251 252 253 255 255 256 260 263 265 268 271 271 270 267 270 272 277 280 282 281 279
239 241 243 244 245 247 246 247 247 250 251 252 254 254 254 255 257 260 262 264 264 267 269 269 270 271 273 276 279 278 280 280
237 240 243 245 246 245 247 248 249 248 247 249 251 254 253 254 255 258 260 263 266 269 270 272 272 274 277 277 279 280 281 279
235 236 239 242 244 246 248 249 251 251 254 253 251 252 253 255 255 257 261 263 265 267 267 272 273 275 276 278 279 281 281 279
236 237 236 238 240 241 242 245 243 249 246 250 251 253 256 257 260 262 264 265 267 269 269 271 273 274 275 277 278 278 278 279
230 235 235 237 238 239 239 240 241 244 248 249 252 254 256 257 258 260 260 261 263 264 266 268 271 273 274 275 278 281 283 285
233 233 235 236 238 240 242 245 248 249 251 251 252 254 254 255 257 258 259 260 262 263 265 266 268 271 273 276 279 281 283 286
237 238 241 241 241 242 244 246 247 248 250 251 252 252 253 255 256 258 261 263 265 266 268 269 272 274 275 277 280 284 287 290
240 238 241 243 245 246 247 249 251 253 254 255 256 256 258 259 259 261 263 266 266 268 271 274 275 275 278 280 285 288 290 292
242 239 240 244 248 250 251 251 252 253 255 257 259 259 260 261 263 264 265 267 269 271 274 275 275 277 281 283 286 287 288 292
232 239 239 240 242 247 250 251 253 256 258 259 260 261 262 263 265 267 269 270 273 276 276 275 275 278 280 285 287 284 288 290
Height
10900 10909 10907 10920 10916 10919 10925 10926 10925 10928 10929 10930 10929 10930 10929 10929 10928 10930 10930 10929 10928 10932 10933 10934 10934 10933 10933 10932 10930 10929 10929 10927
10873 10891 10900 10905 10909 10909 10911 10907 10913 10918 10921 10922 10920 10920 10919 10918 10917 10919 10918 10916 10916 10920 10920 10923 10924 10925 10923 10920 10919 10919 10918 10915
10854 10866 10888 10892 10896 10898 10900 10897 10904 10910 10914 10906 10905 10905 10907 10909 10908 10908 10907 10905 10903 10905 10907 10909 10910 10911 10911 10910 10907 10906 10905 10904
10837 10846 10864 10876 10878 10885 10889 10886 10891 10898 10903 10895 10893 10894 10895 10896 10897 10895 10895 10896 10897 10896 10894 10894 10896 10897 10896 10896 10895 10892 10890 10891
10810 10825 10840 10854 10858 10867 10871 10874 10878 10881 10887 10883 10880 10879 10883 10883 10885 10885 10886 10884 10883 10882 10880 10880 10879 10879 10879 10881 10881 10881 10880 10877
10782 10802 10817 10831 10839 10847 10850 10855 10865 10869 10867 10865 10865 10866 10871 10868 10871 10871 10872 10870 10871 10870 10867 10864 10866 10864 10867 10868 10864 10864 10863 10863
10766 10780 10797 10808 10818 10826 10830 10834 10845 10852 10852 10846 10848 10848 10855 10858 10854 10856 10855 10857 10859 10858 10857 10856 10855 10851 10850 10848 10845 10847 10845 10849
10751 10764 10777 10787 10796 10803 10811 10818 10825 10830 10832 10830 10836 10835 10837 10842 10841 10839 10837 10838 10840 10845 10845 10840 10840 10837 10835 10834 10834 10833 10831 10828
10734 10747 10761 10773 10778 10783 10792 10799 10801 10803 10808 10813 10822 10824 10825 10828 10823 10822 10819 10821 10821 10826 10827 10829 10828 10824 10821 10822 10822 10819 10816 10815
10724 10732 10745 10752 10758 10767 10774 10775 10776 10781 10791 10797 10802 10807 10808 10806 10807 10806 10806 10807 10807 10803 10806 10811 10814 10808 10807 10806 10802 10801 10799 10797
10711 10718 10726 10732 10741 10747 10752 10756 10758 10770 10777 10781 10783 10786 10787 10789 10792 10791 10789 10789 10789 10789 10790 10791 10791 10790 10790 10788 10785 10781 10776 10775
10695 10702 10708 10718 10724 10727 10732 10738 10742 10749 10755 10760 10763 10768 10767 10769 10773 10771 10773 10771 10772 10770 10772 10772 10773 10773 10771 10768 10767 10764 10761 10758
10678 10686 10693 10702 10707 10711 10719 10721 10726 10732 10733 10740 10744 10746 10747 10749 10750 10755 10757 10757 10756 10753 10754 10755 10755 10754 10752 10752 10749 10747 10745 10741
10662 10672 10680 10687 10691 10699 10706 10706 10713 10712 10716 10719 10723 10726 10728 10728 10731 10736 10739 10739 10739 10738 10738 10738 10738 10738 10737 10735 10733 10732 10730 10726
10648 10656 10666 10674 10681 10686 10691 10692 10695 10696 10700 10705 10709 10710 10712 10715 10717 10718 10722 10721 10721 10723 10723 10723 10723 10722 10721 10718 10715 10712 10709 10706
10635 10642 10650 10658 10665 10671 10675 10679 10683 10687 10689 10691 10694 10696 10698 10700 10701 10702 10702 10703 10705 10706 10707 10708 10708 10706 10705 10703 10700 10697 10694 10690
10624 10634 10639 10645 10651 10655 10661 10665 10667 10669 10672 10675 10679 10681 10682 10684 10686 10686 10686 10688 10689 10690 10692 10692 10690 10689 10687 10686 10682 10677 10673 10668
10612 10619 10624 10630 10636 10641 10646 10649 10652 10655 10658 10661 10664 10666 10668 10670 10671 10672 10673 10673 10674 10676 10678 10676 10673 10671 10669 10668 10664 10658 10651 10643
10599 10604 10612 10619 10622 10625 10628 10632 10636 10640 10643 10647 10650 10652 10654 10655 10657 10657 10657 10657 10658 10661 10662 10659 10656 10653 10651 10650 10648 10642 10635 10630
10588 10594 10602 10606 10607 10607 10609 10616 10622 10626 10630 10633 10635 10637 10639 10639 10639 10638 10639 10640 10643 10645 10645 10641 10638 10636 10635 10632 10629 10624 10620 10613